Погода в Баймакове

Россия / Оренбургская область     53°35′09″N   52°23′10″E
темп.,
°C
ветер,
м/с
пор.,
м/с
влажн.,
%
обл.,
%
осадки,
мм/ч
давл.,
гПа
погр.,
м
5 августа, чт
чт523:00+27сз7114897 0.0 1010456
02:00+21ссз51172100 0.3 1011283
05:00+19ссз4889100 0.7 1011215
08:00+20сз35818 0.2 1012322
11:00+25ссз675337 0.2 10121004
14:00+28ссз6636100 0.0 10111939
17:00+30сз652519 0.0 10113120
20:00+27ссз693217 0.0 10121807
6 августа, пт
пт623:00+19ссз345193 0.0 101353
02:00+17ссз226566 0.0 101424
05:00+15ссз226927 0.0 101418
08:00+18с355821 0.0 1015234
11:00+25с45340 0.0 10161833
14:00+27с562536 0.0 10142408
17:00+28ссз56201 0.0 10142552
20:00+26с35245 0.0 1014159
7 августа, сб
сб723:00+18ссв343994 0.0 101558
02:00+15св22402 0.0 101615
05:00+14всв22475 0.0 101710
08:00+18всв22405 0.0 1018147
11:00+25св22295 0.0 10171080
14:00+28с44255 0.0 10171924
17:00+30ссв66250 0.0 10162160
20:00+26ссв56350 0.0 1017810
8 августа, вс
вс823:00+19св38511 0.0 1018127
02:00+16всв226039 0.0 101826
05:00+15всв226022 0.0 101917
08:00+18всв23465 0.0 1020194
11:00+25всв33335 0.0 1019830
14:00+30ссв342896 0.0 10181657
17:00+31ссв4525100 0.0 10182291
20:00+29св572997 0.0 1018489
9 августа, пн
пн923:00+22всв3744100 0.0 101996
02:00+20в3447100 0.0 101955
05:00+18вюв2146100 0.0 102011
08:00+20в3438100 0.0 1020155
11:00+26в3429100 0.0 1020664
14:00+29в3328100 0.0 10191266
17:00+32всв442478 0.0 10171932
20:00+29в4625100 0.0 1017213